Regional Weather Roundup
Issued by NWS

Home | Current Version | Previous Version | Text Only | Print | Product List | Glossary On
Versions: 1 2 3 4 5 6 7 8 9 10 11 12 13 14 15 16 17 18 19 20 21 22 23 24 25 26 27 28 29 30 31 32 33 34 35 36 37 38 39 40 41 42 43 44 45 46 47 48 49 50
692
ASUS43 KLSX 231507
RWRMO
STLRWRMO ALL

WEATHER SUMMARY FOR MISSOURI
NATIONAL WEATHER SERVICE SPRINGFIELD MO
1000 AM CDT SUN APR 23 2017

NOTE: "FAIR" INDICATES FEW OR NO CLOUDS BELOW 12,000 FEET WITH NO
       SIGNIFICANT WEATHER AND/OR OBSTRUCTIONS TO VISIBILITY.
       CURRENT SKY AND/OR WEATHER CONDITIONS ARE NOT AVAILABLE FOR
       CHILLICOTHE AND FARMINGTON.

MOZ001>031-035>038-043-044-053-054-231600-
...NORTHERN AND WESTERN MISSOURI...

CITY           SKY/WX    TMP DP  RH WIND       PRES   REMARKS
KANSAS CTY INT MOSUNNY   59  34  39 N6        30.18S
KANSAS C DTWN  SUNNY     59  38  45 CALM      30.17F
LEE`S SUMMIT   SUNNY     59  36  42 NE5       30.18S
ST JOSEPH      SUNNY     56  43  61 VRB3      30.19S
CHILLICOTHE      N/A     60  37  42 VRB5      30.19R
KIRKSVILLE     SUNNY     62  34  35 NE9       30.17S

$$
MOZ066>068-077>081-088>096-101>105-231600-
...SOUTHWEST MISSOURI...

CITY           SKY/WX    TMP DP  RH WIND       PRES   REMARKS
SPRINGFIELD    SUNNY     56  39  53 NE12      30.12S
JOPLIN         SUNNY     55  41  59 N6        30.16R
BRANSON        SUNNY     54  39  58 NW7       30.12F

$$
MOZ032>034-039>042-045>050-055>058-069>072-231600-
...CENTRAL MISSOURI...

CITY           SKY/WX    TMP DP  RH WIND       PRES   REMARKS
COLUMBIA       SUNNY     58  34  40 N9        30.14S
JEFFERSON CITY SUNNY     60  32  34 NE8       30.14S
ROLLA          SUNNY     56  37  49 N17       30.11S
WHITEMAN AFB   SUNNY     57  34  41 NE5       30.15F
OSAGE BEACH    SUNNY     55  36  48 NE10      30.15S

$$
MOZ051-052-059>065-231600-
...EAST CENTRAL MISSOURI...

CITY           SKY/WX    TMP DP  RH WIND       PRES   REMARKS
ST LOUIS INTL  SUNNY     60  34  37 NE12      30.11F
SPIRIT OF STL  SUNNY     59  37  44 NE13      30.11S
ST CHARLES     SUNNY     60  37  42 NE12G18   30.12S

$$
MOZ072>076-082>087-097>100-106>115-231600-
...SOUTH CENTRAL AND SOUTHEAST MISSOURI...

CITY           SKY/WX    TMP DP  RH WIND       PRES   REMARKS
CAPE GIRARDEAU CLOUDY    53  41  63 N15G22    30.01S
FARMINGTON     SUNNY     54  33  45 N16G23    30.08F
POPLAR BLUFF   PTSUNNY   54  41  61 N16       30.01S
WEST PLAINS    SUNNY     56  38  50 N17G26    30.08S

$$




USA.gov is the U.S. government's official web portal to all federal, state and local government web resources and services.